Погода Большой Шантар

Погода Большой Шантар : погода сейчас, прогноз погоды и архив. Всё, что Вы хотите узнать о погоде Большой Шантар!

Хотите узнать прогноз погоды Большой Шантар? Тогда Вам сюда: Погода Большой Шантар

Поиск расширенной информации на нашем сайте:

Другие новости

Новости СМИ2

Главная страница сайта

Новости сайта

03.07.2017

Напоминаем, что на нашем специализированном сайте Метеоцентр.Азия вы можете получить высокодетализированные автоматические прогнозы погоды по пунктам России, СНГ и мира в авиационном формате (включающие направление и скорость ветра, видимость, явления погоды, количество и форму облачности, нижнюю и верхнюю границу облачности).

Рекомендуем: мобильные электрокардиографы

Погода Большой Шантар - сегодня

Время (UTC), дата Ветер
(°,м/с) 
Видим.   Явления Облачность Т
(°С)
Тd
(°С)
f(%) Тe
(°С)
Pmin
(гПа)
dP
(гПа)
Po
(мм)
O2
(г/м3)
Тmin Tmax R s Состояние
почвы
09 18.04.18 180 (Ю) 20000 м    ясно 
+4.1 -8.3 40 +4  1008.6  0.2  756  301    +6.6       
12 18.04.18 080 (В) 20000 м    ясно 
-4.1 -8 74 -4  1010  1.4  757  310           
15 18.04.18 050 (СВ) 20000 м    ясно 
-6.2 -9.6 77 -8  1010.6  0.5  757  313           
18 18.04.18 040 (СВ) 20000 м    ясно 
-8.3 -10.5 84 -10  1010.6  757  316           
00 19.04.18 220 (ЮЗ) 20000 м    ясно 
+0.4 -8.1 53 1010.2  -0.4  757  305           
03 19.04.18 280 (З) 20000 м    3/0 верхняя 
[Ci fib]
+4.3 -5.9 47 +5  1009.3  -0.9  756  301           
06 19.04.18 230 (ЮЗ) 20000 м    6/0 верхняя 
[Cs]
+5.8 -8.3 35 +6  1007.1  -2.2  755  299           
12 19.04.18 040 (СВ) 20000 м    8/4 600 м средняя, верхняя 
[Sc|Ac trans|Ci fib]
+0.1 -7.1 58 -1  1006.1  754  304           
15 19.04.18 040 (СВ) 20000 м    6/0 верхняя 
[Ci fib]
-0.2 -5.1 69 -2  1004.9  -1.2  753  304           
18 19.04.18 040 (СВ) 20000 м    10/0 средняя 
[As trans]
+2.4 -5.1 58 +1  1004.7  -0.2  753  301           
21 19.04.18 100 (В) 20000 м    10/8 600 м средняя 
[Sc|As op]
+0.7 -3.8 72 +1  1006.4  1.7  754  303  -1.3      38  равномерный
мокрый или
старый снег
100% 
00 20.04.18 240 (ЮЗ) 20000 м    8/4 600 м средняя 
[Sc|Ac trans]
+2.5 -1.9 73 +3  1007.4  755  302           
03 20.04.18 020 (С) 20000 м    8/4 600 м средняя 
[Sc|As op]
+4.6 -3.3 56 +2  1008.6  1.2  756  300           
06 20.04.18 200 (Ю) 20000 м    10/10 600 м 
[Sc]
+1.2 -1.8 80 +1  1009.2  0.6  756  304           
12 20.04.18 тихо ()   20000 м    10/0 средняя 
[As op]
-0.3 -1.9 89 -0  1009.6  0.6  756  305           
15 20.04.18 040 (СВ) 20000 м    10/0 средняя 
[As op]
+0.4 -2.5 81 -1  1008  -1.7  755  304           
18 20.04.18 040 (СВ) 20000 м    10/0 средняя 
[As op]
-0.5 -2.8 84 -1  1008.5  0.5  756  305           
21 20.04.18 050 (СВ) 10 км  слаб. снег  10/3 600 м средняя 
[Sc|As op]
-0.8 -2.8 86 -4  1009.7  1.2  756  306  -1.1    0.0  34  равномерный
мокрый или
старый снег
100% 
03 21.04.18 010 (С) 10 км  слаб. снег  10/0 средняя 
[As op]
+0.8 -2.2 80 -2  1013.9  2.4  760  305           
06 21.04.18 230 (ЮЗ) 4000 м  слаб. снег  10/10 300 м 
[Ns]
+0.4 -0.7 92 1015.3  1.4  761  306           
09 21.04.18 180 (Ю) 20000 м  {снег}  10/6 300 м средняя 
[As op]
+0.3 -0.4 95 -2  1015.8  1.4  761  306    +2.4  11     
12 21.04.18 240 (ЮЗ) 20000 м  {снег}  8/0 средняя 
[Ac und]
-1.9 -2.5 96 -1  1018.1  1.1  763  310           
15 21.04.18 310 (СЗ) 20000 м    6/0 средняя 
[Ac trans]
-4.4 -4.7 98 -4  1018.6  0.5  763  313           
18 21.04.18 080 (В) 20000 м    8/3 600 м верхняя 
[Sc|Cs]
-6.4 -7 95 -6  1018.8  0.2  763  316           
06 22.04.18 330 (СЗ) 6{14}  20000 м    3/3 600 м 
[Sc]
+4.6 -10.2 33 +2  1020  0.1  764  304           
Время (UTC), дата Ветер
(°,м/с) 
Видим.   Явления Облачность Т
(°С)
Тd
(°С)
f(%) Тe
(°С)
Pmin
(гПа)
dP
(гПа)
Po
(мм)
O2
(г/м3)
Тmin Tmax R s Состояние
почвы

Для получения пояснительной информации подведите курсор к названию столбца.

ПОГОДА Большой Шантар - архив

Всё, что Вы хотите узнать о погоде Большой Шантар - удобно и подробно!

Выберите нужную дату (начиная с 1 января 2015* года) и нажмите кнопку "Найти".
Будут отображены архивные сводки погоды по пункту Большой Шантар, начиная с указанной даты.


Отображать данные в формате CSV (для использования в таблицах Excel)


Внимание! Наш архив погоды предназначен исключительно для личного некоммерческого использования в познавательных целях. Если Вам необходимы официальные справки о состоянии погоды (для производственных, юридических, коммерческих и т.п. целей), обращайтесь в органы Росгидромета.

*Примечание: данная дата относится к архиву по метеостанциям СССР (Россия, СНГ, Балтия).
Архив по метеостанциям Зарубежной Европы и Азии (кроме Китая) хранится 10 дней, по другим регионам земного шара (Китай, Африка, Америка, Австралия, Океания) - 1 день.

Большой Шантар - район местоположения метеостанции


Название, широта, долгота, высота метеостанции:
Большой Шантар 54.8°ш. 137.5°д. 21 м над ур. моря [Российская Федерация]

Дополнительная информация

В oтличие oт бoльшинства пoгoдных сайтoв мы публикуем пoдрoбную метеoинфoрмацию в детальнoм прoфессиoнальнoм фoрмате.

Характеристики температуры и влажнoсти вoздуха измеряются на высoте 2 м в тени вдали oт зданий и деревьев.
Скoрoсть ветра измеряется на высoте 10 м (на урoвне рoста челoвека скoрoсть ветра ниже в 1.5-2 раза). Если метеoстанция нахoдится в гoрoде или в лесу, тo скoрoсть ветра занижена на 2-4 м/с пo сравнению с oткрытым местoм. Скoрoсть ветра над акватoриями крупных рек и oзёр, а также на вершинах хoлмoв на 2-5 м/с выше, чем в oбычных услoвиях.
Атмoсфернoе давление в разных тoчках местнoсти мoжет значительнo oтличаться oт давления на метеoстанции, в зависимoсти oт услoвий рельефа (при пoдъёме на 10 м давление пoнижается примернo на 1 мм рт.ст.).